RH
92 92 92 92 95 93 94 93 96 97 98 97 98 96 92 90 90 90 89 86 91 94 95 95 95 90 88 92 79 24 40 30 51 66 72 63 64 52 58 56 46 57 47 46 42 39 40
91 92 94 98 97 91 93 94 93 92 93 93 93 95 91 90 89 87 84 84 84 90 87 94 95 88 85 96 31 47 48 46 48 73 76 57 54 49 46 44 49 39 42 40 39 40 42
92 91 96 94 92 92 92 91 88 90 88 89 91 86 97 87 87 86 86 84 50 57 66 63 94 87 80 81 34 37 40 73 74 71 63 50 47 44 48 42 41 40 45 40 41 39 42
94 91 92 93 93 90 88 86 86 88 89 84 87 85 84 87 88 88 89 34 41 65 76 67 93 87 94 54 55 48 38 50 60 75 48 46 42 42 39 37 41 40 41 52 34 36 38
87 90 92 92 90 88 90 86 82 89 84 83 85 87 87 88 88 88 54 32 45 74 83 85 81 77 89 53 47 33 40 44 66 72 70 49 48 54 42 54 62 56 50 50 44 32 33
92 93 91 90 89 89 88 84 82 84 85 86 88 89 89 89 90 82 54 33 47 74 96 87 84 85 61 62 45 37 35 40 71 69 56 58 58 60 63 61 58 45 62 46 43 36 39
92 90 88 90 88 87 83 91 84 84 87 88 88 89 90 91 92 82 44 49 77 61 70 82 74 80 61 48 47 40 36 56 43 57 90 56 75 81 59 52 46 41 44 44 38 31 33
94 87 86 85 84 87 84 81 85 89 88 89 89 90 92 93 87 69 67 82 76 85 92 63 67 70 65 66 65 49 39 50 64 86 60 70 84 58 50 53 54 52 54 49 41 32 38
90 87 87 87 85 86 82 86 89 90 90 91 90 91 92 85 58 66 76 74 80 86 86 74 63 66 58 59 62 58 48 48 59 76 73 80 65 48 52 52 60 61 63 56 52 38 38
88 84 84 86 84 85 87 89 90 91 92 86 91 94 60 50 56 72 68 69 83 83 82 42 61 52 36 50 56 34 29 54 52 64 67 75 58 61 62 64 57 67 46 48 52 55 61
87 86 85 84 88 87 90 90 92 93 91 63 58 62 61 58 69 79 69 59 81 83 34 57 54 35 38 45 47 38 30 48 65 77 82 80 82 82 84 67 55 64 48 49 52 58 59
82 85 86 87 91 92 92 93 92 92 90 52 47 53 52 62 68 64 64 66 82 63 56 70 54 50 50 43 44 44 37 44 54 71 70 71 48 58 72 62 56 65 76 73 66 61 94
91 85 84 85 92 94 93 93 92 93 92 38 37 44 50 66 68 54 61 80 51 64 59 74 67 54 59 55 48 53 50 91 92 93 74 63 55 56 46 63 60 67 92 94 94 95 89
89 91 93 93 95 93 94 93 93 91 79 41 28 37 40 44 40 45 61 59 59 68 86 59 56 58 62 58 57 64 62 61 82 87 96 94 65 57 35 71 93 80 97 96 94 90 74
88 92 96 96 95 95 94 94 93 89 46 34 27 33 37 32 25 31 64 89 94 79 65 69 64 70 67 57 69 68 69 72 80 77 83 97 73 43 43 31 34 70 93 98 97 93 89
92 92 97 96 95 95 95 94 93 91 59 47 51 52 43 40 25 28 72 76 73 64 61 63 78 67 89 77 84 82 76 56 56 79 75 84 95 57 41 41 45 42 55 86 88 95 92
88 93 94 95 95 95 95 94 93 92 79 49 53 50 47 40 30 70 86 81 70 57 58 67 68 77 79 92 84 86 78 62 68 72 76 80 95 68 60 45 55 76 91 94 97 95 94
94 93 94 95 95 95 95 93 92 91 89 58 75 35 50 34 64 91 80 73 61 68 54 62 62 71 75 87 95 91 89 72 69 75 85 77 97 99 71 47 76 77 90 96 95 87 95
94 93 95 95 95 93 94 94 93 91 93 93 92 94 51 38 76 89 81 81 70 65 62 65 73 62 66 83 95 86 86 63 63 73 84 78 91 96 63 39 62 82 78 85 91 96 96
95 95 94 94 96 96 96 97 99 95 87 78 89 84 83 86 82 84 96 89 81 58 67 65 71 70 78 82 76 93 75 65 64 64 58 79 98 96 92 68 74 93 80 71 88 96 94
96 95 97 96 90 93 98 99 96 96 68 68 94 92 83 96 87 87 91 92 86 79 74 75 82 78 96 94 86 84 74 70 62 59 66 74 100 90 81 83 90 90 86 81 85 93 94
97 94 90 94 86 94 97 95 93 93 72 73 92 94 94 95 89 95 85 91 82 76 93 85 90 78 82 95 86 95 88 78 80 77 80 94 91 92 94 90 85 94 89 88 90 89 92
92 92 93 94 88 90 87 92 93 90 78 87 79 78 88 83 89 94 88 75 80 78 82 76 92 98 94 80 84 77 78 83 84 93 94 96 96 96 96 86 90 88 97 89 90 91 94
93 86 87 85 85 85 90 90 86 84 83 80 83 89 100 95 98 83 72 72 81 82 96 92 84 96 77 68 82 83 86 97 94 94 81 96 97 97 96 95 100 95 93 92 93 93 92
92 93 94 91 92 92 92 83 76 82 76 76 78 88 99 97 96 81 85 97 90 95 96 91 80 73 70 94 90 90 79 77 95 74 75 76 97 98 95 97 92 93 92 95 97 97 97
96 94 93 93 88 85 88 85 81 72 83 79 75 87 100 99 94 93 95 90 97 93 88 79 71 68 78 97 96 95 97 92 89 74 52 74 72 89 96 98 100 96 85 93 96 99 92
96 95 95 93 92 89 86 86 82 78 77 71 84 92 98 97 95 94 95 96 93 92 98 88 80 92 78 95 96 99 98 94 98 99 96 85 89 94 98 100 100 95 93 94 100 99 92
93 93 93 91 89 87 85 82 79 79 76 65 92 74 94 96 95 94 92 95 91 93 98 85 85 87 93 93 98 99 97 99 94 98 100 99 100 100 94 97 99 82 76 87 96 94 95
92 92 88 90 88 86 84 82 79 96 69 61 73 98 82 90 97 73 56 61 76 86 98 96 95 97 97 97 95 94 93 90 93 100 80 97 99 100 95 96 99 98 99 97 96 97 93
Wind_Speed
12 13 14 16 17 18 19 20 21 23 24 25 26 28 30 32 34 35 35 36 33 27 24 21 17 12 4 4 11 8 9 12 13 26 25 12 7 9 10 7 4 12 8 8 15 18 14
12 14 15 16 17 19 20 21 22 24 25 26 27 29 30 32 34 36 38 39 34 29 29 22 13 7 4 6 5 9 12 5 18 26 18 11 10 8 7 6 15 4 16 20 14 14 7
12 14 15 16 17 18 20 22 23 25 26 27 27 30 31 32 34 37 39 37 32 34 23 15 8 8 7 17 8 15 13 3 13 27 9 20 6 10 7 3 7 5 14 13 8 6 8
12 13 15 16 17 19 20 22 23 24 25 27 28 29 32 34 35 37 37 33 35 20 9 3 9 9 7 8 17 19 12 10 8 20 7 19 11 5 5 3 5 3 3 4 7 16 7
11 13 15 16 18 20 21 22 24 25 26 28 29 31 33 35 38 41 34 35 18 4 6 9 7 5 9 15 7 16 7 6 6 7 11 6 8 7 4 3 5 5 15 15 5 7 7
12 13 15 17 18 20 21 23 24 25 26 27 29 31 33 35 38 37 35 24 7 5 6 3 8 2 2 7 13 26 12 9 2 3 1 4 5 5 7 8 20 19 14 5 9 8 10
12 14 16 17 19 20 22 23 24 26 27 29 31 33 33 34 35 25 32 6 6 5 10 2 10 5 15 16 18 5 7 1 2 2 7 4 6 18 18 23 24 13 9 18 2 5 6
12 14 16 18 19 20 21 23 24 26 27 29 32 34 33 30 22 17 30 6 3 7 9 5 9 8 15 9 5 8 4 4 5 9 2 5 18 8 5 9 16 20 22 31 10 4 3
12 14 16 17 19 20 21 22 24 25 28 31 33 36 32 28 6 19 11 15 18 10 4 7 4 3 5 3 4 8 7 4 4 4 6 16 10 3 3 15 13 18 23 21 18 4 8
12 13 15 16 18 20 21 22 25 26 29 34 33 30 28 25 4 21 4 28 19 1 3 4 4 6 12 4 2 8 17 4 3 6 8 12 13 20 21 21 8 22 13 17 17 8 15
12 13 14 16 17 19 22 24 25 27 30 34 29 24 21 18 9 6 22 30 4 4 4 7 5 6 10 7 9 10 17 6 5 6 3 5 13 17 13 7 7 24 8 14 15 13 12
11 12 13 15 17 18 21 24 27 28 31 33 23 19 20 14 9 21 25 17 2 3 6 7 5 10 11 8 6 6 8 7 4 4 4 3 10 5 12 14 11 17 13 12 11 12 8
10 12 13 15 16 18 21 23 26 27 29 32 20 14 17 12 14 31 19 1 4 3 10 8 8 13 11 10 6 7 10 6 4 7 8 8 5 2 14 16 12 8 4 3 5 5 7
10 12 13 14 16 18 20 22 25 28 31 31 18 12 18 23 33 28 6 5 6 4 3 6 7 14 4 10 4 8 9 5 1 2 3 4 7 8 10 1 8 16 6 4 5 6 2
10 11 12 14 15 17 20 22 25 28 32 31 17 7 17 32 31 25 5 6 1 2 5 6 12 3 3 8 4 8 6 3 3 1 2 3 5 12 16 13 5 7 6 8 6 13 10
10 10 11 14 15 17 20 22 25 28 31 27 11 7 13 28 21 13 5 3 1 1 4 3 3 3 6 5 5 6 4 5 3 4 3 5 8 6 9 8 1 9 5 6 4 5 7
8 10 11 13 15 18 20 22 25 27 30 24 5 4 18 24 8 6 3 3 3 4 5 3 4 6 5 5 4 4 6 9 4 6 4 5 4 6 6 3 9 8 0 3 1 3 2
8 10 12 14 15 17 19 22 23 26 29 19 5 3 18 20 4 2 2 4 5 4 2 4 4 4 3 3 5 3 6 4 7 3 7 3 2 4 9 15 7 5 5 5 1 4 3
9 10 11 14 16 17 19 20 22 23 23 10 2 2 9 9 3 3 5 4 3 3 5 3 4 3 2 5 6 5 5 4 9 9 5 3 2 3 8 5 3 4 8 7 6 6 3
8 10 12 15 17 19 19 20 22 24 22 7 3 3 4 4 1 2 4 4 4 4 5 3 6 4 5 8 9 7 15 8 6 13 20 6 1 4 7 7 4 5 14 16 5 3 4
8 11 12 14 15 17 18 19 20 22 18 5 3 1 2 4 3 3 2 3 4 5 2 3 3 5 7 7 15 8 6 17 6 14 3 1 5 7 10 5 14 10 12 17 14 12 4
9 10 11 12 14 16 17 18 20 22 17 5 2 3 3 3 3 2 2 4 3 5 3 6 4 12 11 8 12 22 16 16 13 4 1 3 7 3 3 17 22 16 17 11 16 12 9
8 10 10 11 12 14 15 16 18 20 15 4 4 3 0 4 1 2 3 5 8 12 7 12 9 13 7 9 10 23 18 20 16 14 14 5 3 2 2 16 9 10 17 12 12 15 7
8 10 12 11 10 10 13 14 16 16 16 10 9 7 2 4 1 5 9 13 16 17 11 6 7 5 5 16 15 8 3 3 8 11 10 5 4 2 3 3 4 5 9 11 16 15 14
8 10 10 10 9 11 12 14 15 14 14 12 12 6 2 3 6 10 15 9 13 7 5 4 5 6 13 7 5 7 4 3 6 9 14 11 2 3 3 4 5 2 8 6 7 7 11
8 9 9 10 11 12 13 14 15 15 13 12 15 8 3 2 10 14 6 13 5 9 6 4 7 14 6 2 3 2 2 6 6 12 15 13 11 4 4 4 2 3 14 7 4 1 11
9 9 10 11 12 13 13 14 14 12 12 12 4 14 4 4 7 9 6 7 6 5 3 5 10 7 5 4 3 3 3 1 4 6 9 8 6 6 6 4 1 10 13 4 2 3 9
10 10 11 12 13 13 13 13 12 11 10 12 4 18 5 3 6 12 8 6 5 5 3 6 6 4 4 6 3 3 4 4 4 4 4 4 4 4 3 3 1 14 4 4 3 4 5
11 11 11 12 12 12 12 11 10 10 12 8 6 12 20 10 3 9 15 22 13 11 5 3 2 4 3 3 4 4 5 4 4 2 4 4 1 1 2 1 1 3 4 4 4 3 4
Wind_Direction
15 9 8 5 2 0 357 353 351 349 347 344 342 341 339 336 334 331 329 326 324 319 313 307 301 293 283 243 256 261 268 299 176 178 181 171 166 186 190 195 218 241 232 225 229 250 267
13 8 2 1 358 357 353 350 348 346 344 342 341 339 337 335 332 329 326 324 322 319 315 304 289 265 215 258 302 329 324 253 191 182 191 170 196 185 204 212 203 225 222 242 245 249 236
13 3 357 355 355 355 354 352 349 346 343 342 340 337 334 333 331 328 325 322 322 321 315 306 234 197 241 253 321 304 322 289 202 189 174 207 202 169 176 286 222 247 272 271 226 211 235
8 2 357 354 354 355 353 351 348 344 341 339 337 338 335 333 332 329 326 327 324 323 337 357 149 172 252 266 319 307 294 256 250 211 211 211 199 213 183 260 346 255 243 234 202 214 212
4 1 357 355 355 354 353 351 348 345 342 341 340 339 337 333 333 334 334 332 332 28 25 114 112 144 268 319 325 334 284 248 233 231 237 240 188 205 168 157 331 223 251 239 271 187 180
4 360 355 355 356 355 352 350 348 345 341 341 340 339 338 336 336 341 341 333 35 101 71 139 84 299 294 317 310 318 307 242 192 142 255 191 228 220 193 184 225 225 237 250 223 200 201
3 0 357 355 354 353 352 349 347 344 344 344 342 341 340 338 338 351 358 27 15 354 46 322 272 243 279 304 304 277 314 350 106 148 202 212 219 223 223 228 251 284 231 244 184 216 217
4 2 0 355 353 353 351 349 347 347 347 346 343 342 340 339 348 357 37 62 59 267 305 297 255 239 261 261 306 323 328 196 171 221 207 279 248 254 255 245 257 260 264 260 260 187 225
4 1 359 356 353 351 349 349 350 351 348 346 346 343 346 344 42 25 42 28 345 338 273 295 248 270 325 164 332 317 343 318 230 240 221 232 234 47 266 251 243 246 247 265 266 261 254
6 3 359 356 351 349 349 350 351 350 346 346 349 351 356 353 25 356 354 337 336 277 14 325 18 16 339 257 253 30 350 259 296 255 230 251 262 262 269 266 219 261 245 258 261 233 254
4 2 359 355 352 349 348 348 348 348 346 350 355 357 4 10 337 352 316 331 5 181 339 -0 5 327 332 36 315 344 336 340 337 309 325 275 332 324 314 269 241 258 205 232 243 231 243
3 1 357 352 351 349 349 348 348 347 346 351 358 1 1 359 338 322 326 330 165 56 252 348 357 341 350 1 348 308 356 353 315 289 264 279 271 265 258 305 302 296 307 304 287 242 229
1 355 354 354 352 353 352 350 348 346 346 351 353 357 360 351 331 343 337 36 26 106 359 355 328 333 322 349 343 5 344 12 13 344 348 315 304 35 37 349 311 4 203 237 221 209 237
0 357 357 357 356 355 354 352 350 348 348 348 346 346 7 360 351 350 353 48 63 5 345 326 327 323 349 4 335 336 344 330 20 351 299 333 325 6 333 157 311 306 252 257 255 206 180
3 3 1 359 358 359 358 354 353 351 351 347 346 343 3 359 351 351 58 52 88 342 333 300 309 323 309 355 303 352 309 262 200 166 129 309 262 323 306 317 269 313 279 319 285 239 258
9 5 9 3 4 3 360 357 354 351 350 348 339 338 5 354 353 21 60 99 6 3 316 292 296 346 312 331 326 346 291 269 323 200 184 269 282 270 311 315 16 329 279 336 328 298 251
12 9 12 10 9 5 2 359 356 352 349 353 357 28 357 355 19 43 75 310 308 301 348 294 285 287 280 315 316 268 277 299 5 334 312 274 226 295 324 328 324 328 44 283 320 277 288
27 21 15 14 11 7 5 2 357 355 352 355 11 7 356 358 47 32 11 307 290 295 303 287 291 246 272 308 282 261 247 232 354 346 315 255 299 269 260 288 143 106 348 306 228 284 246
27 23 18 17 12 9 6 0 358 357 357 337 19 288 359 15 57 343 320 303 273 308 303 305 281 254 315 301 301 245 271 282 338 350 309 316 263 296 312 342 43 21 24 334 281 247 34
30 26 22 18 14 11 6 3 2 359 358 5 48 356 338 37 31 91 337 276 283 277 269 271 273 277 333 304 270 277 288 292 350 299 294 302 318 210 242 254 303 21 24 360 337 313 80
34 28 22 21 14 0 358 359 357 359 3 12 38 327 155 321 347 309 308 288 295 320 274 307 288 280 339 304 308 260 276 303 301 292 286 76 250 233 260 262 84 56 45 36 44 4 36
31 23 14 14 9 11 10 9 9 7 9 61 77 41 316 269 275 275 309 257 277 295 270 288 235 314 307 276 271 294 302 296 287 309 28 280 279 265 278 91 91 60 31 52 33 5 56
27 18 11 9 7 11 7 10 12 13 17 3 347 305 244 276 278 78 243 255 286 297 262 250 306 312 299 283 291 277 276 271 261 295 304 262 276 258 240 144 143 36 7 69 66 29 7
30 20 17 16 8 1 7 8 8 8 13 2 349 312 274 278 206 249 284 287 290 284 269 290 310 275 282 313 296 289 23 351 88 48 18 328 312 260 97 177 44 108 36 73 81 37 21
23 19 21 17 353 356 355 352 353 349 350 359 347 322 303 289 348 337 327 317 308 347 332 290 346 339 309 305 323 340 351 42 100 63 42 28 330 17 86 52 119 70 25 348 6 43 19
17 12 1 349 343 340 339 340 340 340 340 358 352 344 283 305 7 315 334 5 340 346 344 312 337 323 337 17 328 312 344 5 338 342 20 24 31 71 12 97 152 12 332 313 303 160 10
19 8 358 354 351 345 343 344 346 345 350 5 11 3 280 93 4 356 25 343 345 335 310 318 337 328 19 6 20 15 4 335 26 22 343 356 3 40 7 86 110 343 320 323 177 337 355
18 7 1 358 355 356 354 358 359 1 7 6 51 13 72 101 48 27 23 1 337 10 346 297 350 354 346 23 36 346 38 42 78 20 9 34 359 16 334 61 15 348 18 67 276 318 340
17 8 5 2 2 0 7 11 17 43 17 31 66 66 100 84 99 78 50 39 21 338 295 316 232 346 303 357 13 45 35 22 5 42 8 32 73 280 117 265 275 329 66 12 354 323 341